Location: Borotín
(49.5055°N, 14.6142°E)
Time: 05:53:56
(UTC+00:00)

YAOGAN 11 - Pass Details

Date: 27 May 2022
Orbit: 613 x 666 km, 98.4° (Epoch: 28 June)

Event Time Altitude Azimuth Distance (km) Brightness Sun altitude
Exits shadow 01:09:54 14° 174° (S) 1,774 5.9 -13.5°
Maximum altitude 01:13:41 70° 257° (WSW) 694 4.1 -13.1°
Drops below altitude 10° 01:18:13 10° 342° (NNW) 2,080 7.3 -12.7°
Sets 01:20:28 0° 344° (NNW) 3,004 8.2 -12.5°
